Weather History for Jamestown, ND

Change the Weather History Date:

Saturday, August 10, 2013

  Actual Average Record
Temperature  
Mean Temperature 61 °F 70 °F  
Max Temperature 75 °F 83 °F 100 °F (1907)
Min Temperature 46 °F 56 °F 39 °F (1924)
Degree Days  
Heating Degree Days 4 1  
Month to date heating degree days 11 9  
Since 1 June heating degree days 119 128  
Since 1 July heating degree days 34 31  
Cooling Degree Days 0 5  
Month to date cooling degree days 5 59  
Year to date cooling degree days 298 331  
Since 1 June cooling degree days 287 311  
Growing Degree Days 10 (Base 50)    
Moisture  
Dew Point 51 °F    
Average Humidity 68    
Maximum Humidity 93    
Minimum Humidity 43    
Precipitation  
Precipitation 0.00 in 0.06 in 1.67 in (1962)
Month to date precipitation 0.61 0.64  
Year to date precipitation 8.60 12.73  
Sea Level Pressure  
Sea Level Pressure 30.16 in    
Wind  
Wind Speed 3 mph (ESE)    
Max Wind Speed 9 mph    
Max Gust Speed 14 mph    
Visibility 9 miles    
Events Fog    
T = Trace of Precipitation, MM = Missing Value Source: NWS Daily Summary

Daily Weather History Graph

Daily Weather History Graph

Search for Another Location

Airport:

Trip Planner

Search our weather history database for the weather conditions in past years. The results will help you decide how hot, cold, wet, or windy it might be!

Date:

Astronomy

Aug. 10, 2013 Rise Set
Actual Time 6:25 AM CDT 8:53 PM CDT
Civil Twilight 5:51 AM CDT 9:26 PM CDT
Nautical Twilight 5:09 AM CDT 10:09 PM CDT
Astronomical Twilight 4:20 AM CDT 10:57 PM CDT
Moon 10:33 AM CDT (8/10) 10:14 PM CDT (8/10)
Length of Visible Light 15h 34m
Length of Day
14h 27m
Waxing Crescent, 14% of the Moon is Illuminated
Aug 10
Waxing Crescent
Aug 14
First Quarter
Aug 20
Full
Aug 28
Last Quarter
Sep 5
New

Hourly Weather History & Observations

Time (CDT) Temp. Dew Point Humidity Pressure Visibility Wind Dir Wind Speed Gust Speed Precip Events Conditions
12:56 AM 55.9 °F 53.1 °F 90% 30.19 in 10.0 mi NNW 4.6 mph - N/A   Partly Cloudy
1:56 AM 53.1 °F 51.1 °F 93% 30.20 in 10.0 mi North 4.6 mph - N/A   Clear
2:56 AM 51.1 °F 48.9 °F 92% 30.20 in 10.0 mi Calm Calm - N/A   Clear
3:56 AM 48.9 °F 46.9 °F 93% 30.22 in 10.0 mi Calm Calm - N/A   Clear
4:56 AM 48.0 °F 46.9 °F 96% 30.21 in 10.0 mi Calm Calm - N/A   Clear
5:56 AM 48.0 °F 46.0 °F 93% 30.21 in 10.0 mi Calm Calm - N/A   Clear
6:35 AM 46.4 °F 44.6 °F 93% 30.20 in 0.8 mi Calm Calm - N/A   Clear
6:43 AM 46.4 °F 44.6 °F 93% 30.20 in 0.2 mi Calm Calm - N/A Fog Fog
6:49 AM 46.4 °F 44.6 °F 93% 30.20 in 1.5 mi Calm Calm - N/A   Clear
6:56 AM 46.0 °F 44.1 °F 93% 30.22 in 10.0 mi Calm Calm - N/A   Clear
7:56 AM 53.1 °F 51.1 °F 93% 30.22 in 10.0 mi Calm Calm - N/A   Clear
8:56 AM 57.0 °F 53.1 °F 87% 30.21 in 10.0 mi South 3.5 mph - N/A   Clear
9:56 AM 62.1 °F 52.0 °F 70% 30.20 in 10.0 mi SE 5.8 mph - N/A   Clear
10:56 AM 64.0 °F 51.1 °F 63% 30.20 in 10.0 mi Variable 3.5 mph - N/A   Clear
11:56 AM 66.9 °F 52.0 °F 59% 30.19 in 10.0 mi SW 3.5 mph - N/A   Partly Cloudy
12:56 PM 69.1 °F 52.0 °F 54% 30.17 in 10.0 mi Calm Calm - N/A   Clear
1:56 PM 72.0 °F 52.0 °F 49% 30.15 in 10.0 mi SE 5.8 mph - N/A   Clear
2:56 PM 72.0 °F 52.0 °F 49% 30.14 in 10.0 mi Calm Calm - N/A   Clear
3:56 PM 75.0 °F 52.0 °F 44% 30.12 in 10.0 mi South 8.1 mph - N/A   Clear
4:56 PM 73.0 °F 52.0 °F 48% 30.11 in 10.0 mi Variable 3.5 mph - N/A   Clear
5:56 PM 73.0 °F 53.1 °F 49% 30.09 in 10.0 mi ESE 4.6 mph - N/A   Mostly Cloudy
6:56 PM 73.0 °F 53.1 °F 49% 30.07 in 10.0 mi ESE 5.8 mph - N/A   Mostly Cloudy
7:56 PM 69.1 °F 55.0 °F 61% 30.06 in 10.0 mi East 5.8 mph - N/A   Clear
8:56 PM 63.0 °F 55.9 °F 78% 30.07 in 10.0 mi East 6.9 mph - N/A   Clear
9:56 PM 62.1 °F 55.0 °F 78% 30.07 in 10.0 mi ENE 5.8 mph - N/A   Clear
10:56 PM 61.0 °F 55.0 °F 81% 30.06 in 10.0 mi Calm Calm - N/A   Clear
11:56 PM 63.0 °F 55.9 °F 78% 30.07 in 10.0 mi South 6.9 mph - N/A   Mostly Cloudy